Location: Newark
(10.3333°N, 37.7167°E)
Time: 03:19:23
(UTC+00:00)

STARLINK-1125 - Pass Details

Date: 04 February 2020
Orbit: 348 x 351 km, 53.0° (Epoch: 16 February)

Event Time Altitude Azimuth Distance (km) Brightness Sun altitude
Rises 17:21:18 0° 310° (NW) 2,155 7.2 -26.3°
Reaches altitude 10° 17:23:28 10° 297° (WNW) 1,314 6.2 -26.8°
Enters shadow 17:23:48 12° 293° (WNW) 1,200 6.0 -26.9°
